sat.trackr.live / text

‹ back to catalog

STARLINK-4717

NORAD 53705 · 2022-107F

PAYLOAD ACTIVE UNKNOWN

§ Identity

Operator
Country
US
Launch date
2022-09-05
Launch site
AFETR
Launch vehicle
Mass (kg)
RCS (m²)

Purposes: comms

External: N2YO · Heavens-Above · Gunter

§ Orbital elements

Epoch: 2026-05-25T00:24:54.021024Z

Period
95.44 min
Inclination
53.2146°
Eccentricity
0.0000990
Mean motion
15.08845203 rev/d
Perigee alt
539.0 km
Apogee alt
540.4 km
Semi-major
6,917.9 km
B*
-7.8622e-5
RAAN
261.6882°
Arg perigee
95.2041°
Mean anomaly
264.9064°
Rev number
20,637

§ Raw data

STARLINK-47171 53705U 22107F   26145.01729191 -.00001539  00000+0 -78622-4 0  99982 53705  53.2146 261.6882 0000990  95.2041 264.9064 15.08845203206370

JSON: /api/v1/satellites/53705 · /tle

For live sub-satellite position, see the globe view (requires WebGL).

§ Visibility from observer

Set your observer location to see the next 7 days of passes ≥ 10°. The values pass through the URL so the page stays shareable.

No JS? Fill the form by hand. The geolocation button needs JavaScript.